This demonstration page uses our WeatherBlox Daily Observations layout. Learn more.

Left ArrowRight Arrow

39.08367, -84.50855

Hourly Observations for November 27, 2022

Temp ( °F °C ) Dew Point ( °F °C ) Humidity (%) Winds ( mph kmh ) Pressure ( in mb ) Visibility ( mi km ) Precip ( " mm )
12:53 am 00:53 Cloudy with Rain 43 6.1 43 6.1 100 100 Calm 29.81 1009 3 5 0.06 1.52
1:53 am 01:53 Cloudy with Light Rain 44 6.7 43 6.1 96 96 Calm 29.75 1008 4 6 0.01 0.13
2:51 am 02:51 Cloudy with Light Rain 45 7 45 7 100 100 Calm 29.72 1007 4 6 0.01 0.25
2:53 am 02:53 Cloudy with Light Rain 45 7.2 44 6.7 97 97 Calm 29.70 1006 4 6 0.01 0.25
3:04 am 03:04 Cloudy with Rain 45 7.2 44 6.7 97 97 Calm 29.71 1006 2 3 0.02 0.51
3:22 am 03:22 Cloudy with Rain 48 8.9 46 7.8 93 93 VRB 6 9 29.68 1005 3 4 0.09 2.29
3:34 am 03:34 Cloudy with Rain 49 9.4 47 8.3 93 93 VRB 3 6 29.67 1005 3 4 0.12 3.05
3:43 am 03:43 Cloudy with Light Rain 49 9.4 47 8.3 93 93 VRB 5 7 29.65 1004 7 11 0.12 3.05
3:53 am 03:53 Cloudy with Light Rain 50 10 48 8.9 93 93 Calm 29.65 1004 5 8 0.13 3.30
4:27 am 04:27 Cloudy with Heavy Rain 50 10 48 8.9 93 93 SSW 8 13 29.64 1004 2 3 0.06 1.52
4:42 am 04:42 Cloudy with Heavy Rain 50 10 49 9.4 96 96 VRB 3 6 29.64 1004 1 1 0.21 5.33
4:50 am 04:50 Cloudy with Light Rain 50 10 50 10 100 100 Calm 29.63 1003 2 2 0.22 5.59
4:53 am 04:53 Cloudy with Light Rain 50 10 49 9.4 96 96 ENE 3 6 29.61 1003 3 4 0.22 5.59
5:00 am 05:00 Cloudy with Light Rain 50 10 49 9.4 96 96 Calm 29.63 1003 3 5 0.01 0.13
5:53 am 05:53 Cloudy 50 10 48 8.9 93 93 Calm 29.57 1002 10 16 0.01 0.13
6:04 am 06:04 Cloudy with Light Rain 50 10 48 8.9 93 93 VRB 3 6 29.57 1001 3 5 0.03 0.76
6:24 am 06:24 Cloudy 50 10 48 8.9 93 93 SSW 3 6 29.56 1001 10 16 0.03 0.76
6:53 am 06:53 Cloudy 50 10 48 8.9 93 93 S 6 9 29.53 1000 8 13 0.03 0.76
7:53 am 07:53 Cloudy 51 10.6 48 8.9 89 89 VRB 7 11 29.49 999 10 16 0.00 0.00
8:53 am 08:53 Cloudy 53 11.7 50 10 89 89 S 9 15 29.45 997 10 16 0.01 0.13
9:29 am 09:29 Cloudy with Rain 54 12.2 51 10.6 90 90 SSW 13 20 29.45 997 2 3 0.03 0.76
9:36 am 09:36 Cloudy with Heavy Rain 53 11.7 51 10.6 93 93 WSW 17 28 29.46 998 3 5 0.08 2.03
9:53 am 09:53 Cloudy with Light Rain 55 12.8 53 11.7 93 93 SSW 17 28 29.46 998 5 8 0.10 2.54
10:53 am 10:53 Cloudy 57 13.9 51 10.6 80 80 WSW 16 26 29.46 998 8 13 0.01 0.13
11:53 am 11:53 Cloudy with Light Rain 56 13.3 50 10 80 80 SW 23 37 29.47 998 8 13 0.02 0.51
12:53 pm 12:53 Mostly Cloudy 56 13.3 46 7.8 69 69 SW 16 26 29.47 998 10 16 0.01 0.13
1:53 pm 13:53 Mostly Cloudy 56 13.3 45 7.2 66 66 SW 20 31 29.47 998 10 16 0.00 0.00
2:53 pm 14:53 Cloudy 54 12.2 44 6.7 69 69 WSW 22 35 29.50 999 9 14 0.00 0.00
3:06 pm 15:06 Cloudy 54 12.2 45 7.2 71 71 WSW 22 35 29.51 999 10 16 0.00 0.00
3:53 pm 15:53 Cloudy 52 11.1 47 8.3 83 83 SW 17 28 29.54 1000 8 13 0.00 0.00
4:53 pm 16:53 Cloudy with Mist and Fog 51 10.6 47 8.3 86 86 SW 21 33 29.56 1001 5 8 0.00 0.00
5:53 pm 17:53 Cloudy with Light Rain 50 10 48 8.9 93 93 SW 18 30 29.59 1002 2 3 0.01 0.13
5:55 pm 17:55 Cloudy with Light Rain 50 10 48 8.9 93 93 SW 20 31 29.60 1002 2 3 0.01 0.13
6:53 pm 18:53 Cloudy with Light Rain 50 10 48 8.9 93 93 WSW 18 30 29.63 1004 3 5 0.02 0.51
7:29 pm 19:29 Cloudy with Mist and Fog 48 8.9 45 7.2 89 89 W 16 26 29.67 1005 3 5 0.01 0.25
7:53 pm 19:53 Cloudy with Light Rain 48 8.9 44 6.7 86 86 W 18 30 29.67 1005 3 5 0.01 0.25
8:53 pm 20:53 Cloudy 46 7.8 41 5 82 82 W 15 24 29.73 1007 9 14 0.01 0.13
9:53 pm 21:53 Cloudy 45 7.2 42 5.6 90 90 W 10 17 29.76 1008 7 11 0.00 0.00
10:53 pm 22:53 Cloudy 45 7.2 41 5 86 86 NW 6 9 29.79 1009 9 14 0.00 0.00
11:02 pm 23:02 Cloudy 45 7.2 41 5 86 86 W 6 9 29.80 1009 8 13 0.00 0.00
11:53 pm 23:53 Cloudy 46 7.8 41 5 82 82 NW 9 15 29.81 1009 7 11 0.00 0.00

Powered by AerisWeather